Location: Arroyo Grande
(40.2671°N, 4.2512°W)
Time: 18:51:53
(UTC+00:00)

Cosmos 1844 - Pass Details

Date: 03 February 2023
Orbit: 821 x 868 km, 70.9° (Epoch: 22 March)

Event Time Altitude Azimuth Distance (km) Brightness Sun altitude
Rises 19:41:15 0° 331° (NNW) 3,460 7.2 -23.8°
Reaches altitude 10° 19:43:47 10° 327° (NNW) 2,517 6.5 -24.3°
Maximum altitude 19:49:23 53° 252° (WSW) 1,056 4.5 -25.4°
Drops below altitude 10° 19:54:55 10° 177° (S) 2,482 6.1 -26.4°
Sets 19:57:24 0° 173° (S) 3,408 6.8 -26.9°
